This is the latest recevied weather packets stored in our database for station/object KG7KID-3. If no packets are shown the sender has not sent any weather packets the latest 10 day(s).
| Time | Temp. | Humidity | Pressure | Rain* | Wind** | Luminosity | Snow |
|---|---|---|---|---|---|---|---|
| 1777860738 | - | - | 881.3 hPa | 0 mm | - | - | - |
| 1777860437 | - | - | 881.4 hPa | 0 mm | - | - | - |
| 1777860140 | - | - | 881.3 hPa | 0 mm | - | - | - |
| 1777859838 | - | - | 881.3 hPa | 0 mm | - | - | - |
| 1777859538 | 28.89° C | - | 881.4 hPa | 0 mm | - | - | - |
| 1777858638 | 28.89° C | 19% | 881.4 hPa | 0 mm | - | - | - |
| 1777858037 | 28.89° C | 19% | 881.4 hPa | 0 mm | - | - | - |
| 1777857737 | 28.89° C | 19% | 881.5 hPa | 0 mm | - | - | - |
| 1777857137 | 28.89° C | 19% | 881.6 hPa | 0 mm | - | - | - |
| 1777856837 | 29.44° C | 19% | 881.7 hPa | 0 mm | - | - | - |
| 1777855937 | 29.44° C | 18% | 881.7 hPa | 0 mm | - | - | - |
| 1777854737 | 29.44° C | 18% | 881.9 hPa | 0 mm | - | - | - |
| 1777854439 | 30° C | 18% | 881.9 hPa | 0 mm | - | - | - |
| 1777853238 | 30.56° C | 17% | 881.9 hPa | 0 mm | - | - | - |
| 1777852937 | 30.56° C | 17% | 882.1 hPa | 0 mm | - | - | - |
| 1777852637 | 31.11° C | 18% | 882 hPa | 0 mm | - | - | - |
| 1777852338 | 31.11° C | 17% | 881.9 hPa | 0 mm | - | - | - |
| 1777851138 | 31.67° C | 15% | 882 hPa | 0 mm | - | - | - |
| 1777848739 | 32.22° C | 16% | 882.3 hPa | 0 mm | - | - | - |
| 1777847708 | 31.67° C | 17% | 882.4 hPa | 0 mm | - | - | - |
| 1777846508 | 31.11° C | 19% | 882.6 hPa | 0 mm | - | - | - |
| 1777846494 | 30.56° C | 21% | 882.8 hPa | 0 mm | - | - | - |
| 1777846208 | 30.56° C | 21% | 882.8 hPa | 0 mm | - | - | - |
| 1777845908 | 30° C | 21% | 882.9 hPa | 0 mm | - | - | - |
| 1777845008 | 30° C | 22% | 883.1 hPa | 0 mm | - | - | - |
* Rain latest hour (hover to see other rain measurements)
** Current wind speed in m/s (hover to see current wind gust speed)